FW6591 Weather Reports


time (UTC)temp
C
wind
direction
speed
KPH
gust
KPH
rain 1hr
cm
rain 24hr
cm
rain mn
cm
humidity
%
barometer
mb
20260507144539 12 209 8.0 12.9 0.00 0.89 0.00 76 1022.9
20260507143047 13 238 14.5 25.7 0.00 0.86 0.00 67 1022.7
20260507141544 14 233 8.0 12.9 0.00 0.86 0.00 62 1022.5
20260507140045 14 220 9.7 17.7 0.00 0.86 0.00 60 1022.4
20260507134549 14 215 6.4 14.5 0.00 1.02 0.00 61 1022.3
20260507133050 14 224 6.4 12.9 0.00 1.02 0.00 62 1022.2
20260507131545 13 221 9.7 22.5 0.00 1.02 0.00 63 1022.2
20260507130046 14 237 12.9 22.5 0.00 1.02 0.00 62 1022.0
20260507124551 13 234 14.5 20.9 0.00 1.30 0.00 65 1022.1
20260507123042 14 276 19.3 27.4 0.00 1.30 0.00 64 1021.8
20260507121538 13 252 12.9 22.5 0.00 1.30 0.00 66 1021.7
20260507120044 13 228 8.0 19.3 0.00 1.30 0.00 68 1021.8
20260507114603 13 236 14.5 29.0 0.00 1.37 0.00 68 1021.9
20260507113103 13 213 16.1 30.6 0.00 1.37 0.00 67 1021.9
20260507111549 13 253 20.9 29.0 0.00 1.37 0.00 67 1022.0
20260507110042 13 217 20.9 35.4 0.00 1.37 0.00 66 1022.0
20260507104545 13 189 12.9 29.0 0.00 1.40 0.00 67 1022.3
20260507103050 13 202 14.5 27.4 0.00 1.40 0.00 66 1022.2
20260507101545 13 237 17.7 27.4 0.00 1.40 0.00 66 1022.2
20260507100051 13 222 19.3 27.4 0.00 1.40 0.00 65 1022.3
20260507094549 13 230 11.3 29.0 0.00 1.42 0.00 68 1022.3
20260507093051 13 236 12.9 30.6 0.00 1.42 0.00 68 1022.2
20260507091608 13 240 12.9 27.4 0.00 1.42 0.00 68 1022.2
20260507090044 13 188 11.3 29.0 0.00 1.42 0.00 68 1022.2
20260507084604 13 224 16.1 32.2 0.00 1.42 0.00 69 1022.2
20260507083048 12 211 22.5 35.4 0.00 1.42 0.00 69 1022.1
20260507081557 12 238 20.9 32.2 0.00 1.42 0.00 69 1022.1
20260507080052 12 259 9.7 25.7 0.00 1.42 0.00 71 1022.1
20260507074549 12 239 20.9 33.8 0.00 1.42 0.00 71 1021.8
20260507073104 12 213 17.7 32.2 0.00 1.42 0.00 71 1021.7
20260507071539 12 219 20.9 35.4 0.00 1.42 0.00 69 1021.4
20260507070049 12 226 24.1 40.2 0.00 1.42 0.00 69 1021.3
20260507064548 12 211 14.5 24.1 0.00 1.68 0.00 72 1021.0
20260507063044 11 193 6.4 27.4 0.00 1.68 0.00 77 1021.0
20260507061552 11 227 20.9 35.4 0.00 1.68 0.00 78 1020.8
20260507060056 11 238 14.5 24.1 0.00 1.68 0.00 77 1020.6
20260507054544 11 252 11.3 25.7 0.00 1.73 0.00 77 1020.7
20260507053049 11 238 17.7 32.2 0.00 1.73 0.00 76 1020.3
20260507051544 11 230 20.9 33.8 0.00 1.73 0.00 76 1020.3
20260507050044 11 227 17.7 32.2 0.00 1.73 0.00 78 1020.1
20260507044602 11 226 17.7 32.2 0.00 1.85 0.00 77 1019.8
20260507043059 11 252 19.3 32.2 0.00 1.85 0.00 78 1019.7
20260507041544 11 230 19.3 32.2 0.00 1.85 0.00 77 1019.4
20260507040047 11 227 20.9 32.2 0.00 1.85 0.00 77 1019.2
20260507034541 11 227 20.9 38.6 0.00 1.96 0.00 77 1019.0
20260507033040 11 232 22.5 37.0 0.00 1.96 0.00 76 1018.7
20260507031548 11 239 20.9 33.8 0.00 1.96 0.00 77 1018.6
20260507030049 11 238 22.5 33.8 0.00 1.96 0.00 77 1018.2
20260507024550 11 214 11.3 27.4 0.00 2.01 0.00 78 1018.3
20260507023052 11 195 9.7 33.8 0.00 2.01 0.00 77 1018.2
20260507021550 11 244 19.3 32.2 0.00 2.01 0.00 77 1018.0
20260507020051 11 202 14.5 29.0 0.00 2.01 0.00 77 1017.8
20260507014537 11 203 14.5 32.2 0.00 2.26 0.00 77 1017.6
20260507013044 11 216 20.9 35.4 0.00 2.26 0.00 76 1017.5
20260507011547 11 209 11.3 27.4 0.00 2.26 0.00 78 1017.4
20260507010048 11 186 11.3 29.0 0.00 2.26 0.00 79 1017.5
20260507004540 11 231 4.8 14.5 0.00 2.90 0.00 79 1017.4
20260507003049 11 254 9.7 19.3 0.00 2.90 0.00 79 1017.4
20260507001608 11 271 3.2 17.7 0.00 2.90 0.00 79 1017.3
20260507000045 11 219 9.7 20.9 0.00 2.90 0.00 78 1017.3
20260506234540 11 233 19.3 35.4 0.00 5.08 0.00 76 1017.3
20260506233051 11 214 16.1 38.6 0.00 5.08 0.00 77 1017.1
20260506231544 11 215 17.7 35.4 0.00 5.08 0.00 77 1016.9
20260506230056 11 226 22.5 46.7 0.00 5.08 0.00 77 1016.8
20260506224544 11 239 19.3 37.0 0.00 6.25 0.00 78 1016.5
20260506223038 11 210 22.5 40.2 0.00 6.25 0.00 78 1016.3
20260506221603 11 205 19.3 35.4 0.00 6.25 0.00 78 1016.2
20260506220040 11 219 16.1 37.0 0.00 6.25 0.00 79 1015.9
20260506214547 11 221 22.5 38.6 0.00 7.72 6.25 78 1015.6
20260506213043 11 203 16.1 37.0 0.00 7.72 6.25 78 1015.2
20260506211543 11 272 22.5 43.5 0.00 7.72 6.25 78 1014.9
20260506210053 11 229 32.2 49.9 0.00 7.72 6.25 80 1014.7
20260506204550 11 215 25.7 43.5 0.00 8.51 6.25 81 1014.2
20260506203047 11 232 27.4 43.5 0.00 8.51 6.25 81 1014.0
20260506201544 11 233 30.6 48.3 0.00 8.51 6.25 81 1013.8
20260506200044 11 183 27.4 46.7 0.00 8.51 6.25 82 1013.8
20260506194542 11 213 32.2 51.5 0.00 8.94 6.25 82 1013.6
20260506193051 11 224 32.2 49.9 0.00 8.94 6.25 83 1013.4
20260506191549 11 211 27.4 48.3 0.00 8.94 6.25 84 1013.1
20260506190048 11 214 32.2 49.9 0.00 8.92 6.22 84 1012.8
20260506184547 11 233 32.2 51.5 0.00 9.78 6.22 84 1012.0
20260506183047 11 207 29.0 45.1 0.00 9.78 6.22 84 1012.1
20260506181605 11 223 24.1 41.8 0.03 9.78 6.22 85 1011.6
20260506180055 11 216 22.5 45.1 0.08 9.78 6.22 86 1011.5
20260506174558 11 234 20.9 40.2 0.15 10.69 6.22 87 1011.6
20260506173059 11 231 14.5 35.4 0.20 10.67 6.20 88 1011.1
20260506171549 11 264 19.3 40.2 0.30 10.64 6.20 87 1011.1
20260506170053 11 246 20.9 32.2 0.30 10.62 6.15 89 1010.8
20260506164558 11 242 9.7 19.3 0.25 11.23 6.07 91 1010.4
20260506163051 11 205 9.7 24.1 0.18 11.13 5.97 90 1010.6
20260506161553 11 333 6.4 19.3 0.08 11.02 5.87 91 1010.4
20260506160056 11 239 3.2 17.7 0.03 11.00 5.82 91 1010.3
20260506154553 10 174 4.8 12.9 0.08 11.15 5.82 91 1010.5
20260506153047 10 0 3.2 8.0 0.18 11.13 5.79 91 1010.5
20260506151544 10 360 1.6 9.7 0.28 11.13 5.79 91 1010.3
20260506150049 10 0 1.6 16.1 0.38 11.10 5.77 92 1010.3